Location: Buffign�court
(47.8126°N, 6.0176°E)
Time: 19:34:23
(UTC+00:00)

Cosmos 1503 Rocket - Pass Details

Date: 16 June 2021
Orbit: 752 x 791 km, 74.0° (Epoch: 02 August)

Event Time Altitude Azimuth Distance (km) Brightness Sun altitude
Rises 23:09:30 0° 334° (NNW) 3,299 8.6 -18.5°
Reaches altitude 10° 23:11:56 10° 331° (NNW) 2,367 7.6 -18.6°
Maximum altitude 23:17:14 61° 253° (WSW) 895 4.2 -18.7°
Enters shadow 23:19:25 34° 187° (S) 1,269 4.6 -18.7°
